Voltar ao catálogo

STARLINK-11174

AtivoComunicaçõesVLEO
NORAD 60409·PAYLOAD·🇺🇸 United States

Lançado Aug 10, 2024 de Cape Canaveral Space Force Station

Loading…

Próximas Passagens (próximas 24 horas)

TLE

AtualizadoSource: CelesTrak SupGP

Época: Sep 14, 2026, 13:53 UTC

1 60409C 24141M   26257.57895833 -.00022012  00000+0 -18135-3 0  2577
2 60409  53.1576 235.0584 0001148  85.7197 168.0623 15.69715739    16

Acompanhe STARLINK-11174 em tempo real com AllMySat

Download on the App Store